| time (UTC) | temp F | wind direction | speed MPH | gust MPH | rain 1hr in | rain 24hr in | rain mn in | humidity % | barometer mb |
| 20260504234557 | 69 | 108 | 1.0 | 6.0 | 0.00 | 0.00 | 0.00 | 47 | 1030.7 |
| 20260504234057 | 69 | 236 | 2.0 | 7.0 | 0.00 | 0.00 | 0.00 | 46 | 1030.6 |
| 20260504233557 | 69 | 115 | 2.0 | 9.0 | 0.00 | 0.00 | 0.00 | 46 | 1030.6 |
| 20260504233108 | 70 | 16 | 2.0 | 9.0 | 0.00 | 0.00 | 0.00 | 45 | 1030.5 |
| 20260504232556 | 70 | 125 | 2.0 | 6.0 | 0.00 | 0.00 | 0.00 | 45 | 1030.6 |
| 20260504232056 | 70 | 237 | 0.0 | 4.0 | 0.00 | 0.00 | 0.00 | 46 | 1030.7 |
| 20260504231604 | 70 | 95 | 1.0 | 9.0 | 0.00 | 0.00 | 0.00 | 44 | 1030.5 |
| 20260504231055 | 70 | 273 | 3.0 | 9.0 | 0.00 | 0.00 | 0.00 | 44 | 1030.5 |
| 20260504230555 | 71 | 252 | 1.0 | 11.0 | 0.00 | 0.00 | 0.00 | 43 | 1030.5 |
| 20260504230058 | 71 | 127 | 3.0 | 11.0 | 0.00 | 0.00 | 0.00 | 43 | 1030.5 |
| 20260504225556 | 71 | 174 | 1.0 | 7.0 | 0.00 | 0.00 | 0.00 | 44 | 1030.3 |
| 20260504225057 | 72 | 167 | 2.0 | 9.0 | 0.00 | 0.00 | 0.00 | 41 | 1030.3 |
| 20260504224555 | 72 | 34 | 0.0 | 9.0 | 0.00 | 0.00 | 0.00 | 42 | 1030.3 |
| 20260504224055 | 73 | 75 | 2.0 | 12.0 | 0.00 | 0.00 | 0.00 | 41 | 1030.3 |
| 20260504223555 | 73 | 69 | 2.0 | 12.0 | 0.00 | 0.00 | 0.00 | 41 | 1030.2 |
| 20260504223054 | 73 | 101 | 2.0 | 7.0 | 0.00 | 0.00 | 0.00 | 40 | 1030.3 |
| 20260504222555 | 73 | 85 | 1.0 | 9.0 | 0.00 | 0.00 | 0.00 | 40 | 1030.2 |
| 20260504222058 | 74 | 83 | 2.0 | 9.0 | 0.00 | 0.00 | 0.00 | 41 | 1030.1 |
| 20260504221554 | 74 | 79 | 1.0 | 9.0 | 0.00 | 0.00 | 0.00 | 40 | 1030.2 |
| 20260504221053 | 74 | 188 | 1.0 | 9.0 | 0.00 | 0.00 | 0.00 | 40 | 1030.2 |
| 20260504220553 | 74 | 86 | 1.0 | 9.0 | 0.00 | 0.00 | 0.00 | 41 | 1030.3 |
| 20260504220053 | 74 | 113 | 2.0 | 7.0 | 0.00 | 0.00 | 0.00 | 41 | 1030.2 |
| 20260504215553 | 74 | 131 | 1.0 | 8.0 | 0.00 | 0.00 | 0.00 | 39 | 1030.3 |
| 20260504215052 | 74 | 284 | 2.0 | 9.0 | 0.00 | 0.00 | 0.00 | 40 | 1030.4 |
| 20260504214555 | 73 | 82 | 3.0 | 13.0 | 0.00 | 0.00 | 0.00 | 40 | 1030.5 |
| 20260504214051 | 74 | 94 | 2.0 | 14.0 | 0.00 | 0.00 | 0.00 | 40 | 1030.6 |
| 20260504213551 | 73 | 70 | 3.0 | 14.0 | 0.00 | 0.00 | 0.00 | 41 | 1030.7 |
| 20260504213051 | 73 | 137 | 2.0 | 14.0 | 0.00 | 0.00 | 0.00 | 41 | 1030.6 |
| 20260504212550 | 73 | 95 | 2.0 | 9.0 | 0.00 | 0.00 | 0.00 | 41 | 1030.6 |
| 20260504212050 | 73 | 92 | 2.0 | 12.0 | 0.00 | 0.00 | 0.00 | 41 | 1030.6 |
| 20260504211549 | 74 | 352 | 2.0 | 19.0 | 0.00 | 0.00 | 0.00 | 41 | 1030.6 |
| 20260504211052 | 74 | 113 | 3.0 | 19.0 | 0.00 | 0.00 | 0.00 | 39 | 1030.8 |
| 20260504210549 | 74 | 264 | 0.0 | 10.0 | 0.00 | 0.00 | 0.00 | 41 | 1030.7 |
| 20260504210104 | 73 | 72 | 3.0 | 10.0 | 0.00 | 0.00 | 0.00 | 43 | 1030.9 |
| 20260504205548 | 73 | 96 | 2.0 | 7.0 | 0.00 | 0.00 | 0.00 | 42 | 1030.9 |
| 20260504205048 | 73 | 337 | 2.0 | 12.0 | 0.00 | 0.00 | 0.00 | 42 | 1030.8 |
| 20260504204556 | 73 | 77 | 2.0 | 12.0 | 0.00 | 0.00 | 0.00 | 41 | 1030.9 |
| 20260504204046 | 74 | 229 | 3.0 | 8.0 | 0.00 | 0.00 | 0.00 | 38 | 1031.0 |
| 20260504203545 | 73 | 242 | 2.0 | 14.0 | 0.00 | 0.00 | 0.00 | 42 | 1031.1 |
| 20260504203101 | 73 | 40 | 3.0 | 14.0 | 0.00 | 0.00 | 0.00 | 41 | 1031.1 |
| 20260504202545 | 73 | 120 | 4.0 | 14.0 | 0.00 | 0.00 | 0.00 | 41 | 1031.1 |
| 20260504202045 | 73 | 70 | 4.0 | 14.0 | 0.00 | 0.00 | 0.00 | 41 | 1031.2 |
| 20260504201544 | 74 | 84 | 4.0 | 12.0 | 0.00 | 0.00 | 0.00 | 43 | 1031.3 |
| 20260504201044 | 73 | 79 | 3.0 | 12.0 | 0.00 | 0.00 | 0.00 | 41 | 1031.3 |
| 20260504200543 | 74 | 120 | 2.0 | 11.0 | 0.00 | 0.00 | 0.00 | 42 | 1031.5 |
| 20260504200043 | 73 | 227 | 2.0 | 11.0 | 0.00 | 0.00 | 0.00 | 41 | 1031.6 |
| 20260504195543 | 73 | 117 | 5.0 | 11.0 | 0.00 | 0.00 | 0.00 | 40 | 1031.5 |
| 20260504195042 | 74 | 78 | 2.0 | 12.0 | 0.00 | 0.00 | 0.00 | 41 | 1031.7 |
| 20260504194541 | 74 | 205 | 3.0 | 12.0 | 0.00 | 0.00 | 0.00 | 40 | 1031.8 |
| 20260504194040 | 73 | 83 | 1.0 | 8.0 | 0.00 | 0.00 | 0.00 | 44 | 1031.9 |
| 20260504193539 | 73 | 82 | 2.0 | 12.0 | 0.00 | 0.00 | 0.00 | 42 | 1032.0 |
| 20260504193038 | 73 | 119 | 3.0 | 12.0 | 0.00 | 0.00 | 0.00 | 43 | 1032.0 |
| 20260504192537 | 73 | 84 | 5.0 | 11.0 | 0.00 | 0.00 | 0.00 | 39 | 1032.1 |
| 20260504192041 | 73 | 85 | 4.0 | 9.0 | 0.00 | 0.00 | 0.00 | 41 | 1032.2 |
| 20260504191535 | 73 | 102 | 1.0 | 12.0 | 0.00 | 0.00 | 0.00 | 43 | 1032.2 |
| 20260504191035 | 72 | 121 | 4.0 | 12.0 | 0.00 | 0.00 | 0.00 | 43 | 1032.3 |
| 20260504190537 | 72 | 87 | 3.0 | 13.0 | 0.00 | 0.00 | 0.00 | 44 | 1032.3 |
| 20260504190047 | 72 | 107 | 4.0 | 13.0 | 0.00 | 0.00 | 0.00 | 42 | 1032.5 |
| 20260504185534 | 72 | 94 | 3.0 | 9.0 | 0.00 | 0.00 | 0.00 | 42 | 1032.4 |
| 20260504185033 | 72 | 96 | 2.0 | 9.0 | 0.00 | 0.00 | 0.00 | 45 | 1032.6 |
| 20260504184534 | 72 | 86 | 1.0 | 17.0 | 0.00 | 0.00 | 0.00 | 42 | 1032.6 |
| 20260504184031 | 71 | 86 | 1.0 | 17.0 | 0.00 | 0.00 | 0.00 | 44 | 1032.7 |
| 20260504183530 | 71 | 33 | 1.0 | 17.0 | 0.00 | 0.00 | 0.00 | 44 | 1032.8 |
| 20260504183033 | 71 | 83 | 4.0 | 17.0 | 0.00 | 0.00 | 0.00 | 47 | 1032.9 |
| 20260504182531 | 70 | 107 | 2.0 | 12.0 | 0.00 | 0.00 | 0.00 | 46 | 1032.8 |
| 20260504182031 | 70 | 178 | 5.0 | 12.0 | 0.00 | 0.00 | 0.00 | 45 | 1032.8 |
| 20260504181526 | 70 | 91 | 4.0 | 11.0 | 0.00 | 0.00 | 0.00 | 45 | 1033.1 |
| 20260504181026 | 70 | 10 | 3.0 | 11.0 | 0.00 | 0.00 | 0.00 | 42 | 1033.2 |
| 20260504180529 | 70 | 99 | 3.0 | 10.0 | 0.00 | 0.00 | 0.00 | 41 | 1033.2 |
| 20260504180024 | 70 | 66 | 3.0 | 10.0 | 0.00 | 0.00 | 0.00 | 49 | 1033.4 |
| 20260504175523 | 70 | 123 | 1.0 | 10.0 | 0.00 | 0.00 | 0.00 | 46 | 1033.4 |
| 20260504175023 | 69 | 100 | 4.0 | 10.0 | 0.00 | 0.00 | 0.00 | 43 | 1033.6 |
| 20260504174523 | 69 | 101 | 2.0 | 8.0 | 0.00 | 0.00 | 0.00 | 46 | 1033.5 |
| 20260504174023 | 69 | 92 | 0.0 | 5.0 | 0.00 | 0.00 | 0.00 | 44 | 1033.6 |
| 20260504173522 | 69 | 103 | 3.0 | 11.0 | 0.00 | 0.00 | 0.00 | 43 | 1033.7 |
| 20260504173021 | 70 | 127 | 2.0 | 11.0 | 0.00 | 0.00 | 0.00 | 48 | 1033.8 |
| 20260504172521 | 70 | 79 | 1.0 | 13.0 | 0.00 | 0.00 | 0.00 | 48 | 1033.7 |
| 20260504172021 | 70 | 122 | 2.0 | 13.0 | 0.00 | 0.00 | 0.00 | 47 | 1033.8 |
| 20260504171520 | 70 | 67 | 1.0 | 9.0 | 0.00 | 0.00 | 0.00 | 50 | 1033.9 |
| 20260504171023 | 69 | 79 | 3.0 | 9.0 | 0.00 | 0.00 | 0.00 | 47 | 1033.9 |
| 20260504170519 | 69 | 94 | 2.0 | 12.0 | 0.00 | 0.00 | 0.00 | 46 | 1033.9 |
| 20260504151100 | 64 | 95 | 2.0 | 11.0 | 0.00 | 0.00 | 0.00 | 48 | 1035.7 |
| 20260504150600 | 63 | 82 | 4.0 | 12.0 | 0.00 | 0.00 | 0.00 | 43 | 1035.7 |
| 20260504141052 | 62 | 91 | 1.0 | 9.0 | 0.00 | 0.00 | 0.00 | 45 | 1036.1 |
| 20260504140550 | 61 | 89 | 2.0 | 10.0 | 0.00 | 0.00 | 0.00 | 44 | 1036.0 |
| 20260504130535 | 53 | 86 | 0.0 | 4.0 | 0.00 | 0.00 | 0.00 | 64 | 1036.6 |
| 20260504110522 | 42 | 90 | 0.0 | 0.0 | 0.00 | 0.00 | 0.00 | 77 | 1037.3 |
| 20260504100518 | 37 | 90 | 0.0 | 0.0 | 0.00 | 0.00 | 0.00 | 81 | 1037.0 |
| 20260504081604 | 44 | 91 | 0.0 | 0.0 | 0.00 | 0.00 | 0.00 | 69 | 1037.5 |
| 20260504081057 | 44 | 91 | 0.0 | 2.0 | 0.00 | 0.00 | 0.00 | 68 | 1037.5 |
| 20260504080557 | 45 | 91 | 0.0 | 3.0 | 0.00 | 0.00 | 0.00 | 67 | 1037.4 |
| 20260504050539 | 46 | 79 | 0.0 | 3.0 | 0.00 | 0.00 | 0.00 | 64 | 1037.4 |
| 20260504045541 | 47 | 85 | 0.0 | 2.0 | 0.00 | 0.00 | 0.00 | 64 | 1037.6 |
| 20260504045040 | 47 | 91 | 0.0 | 2.0 | 0.00 | 0.00 | 0.00 | 63 | 1037.6 |
| 20260504044536 | 47 | 85 | 0.0 | 3.0 | 0.00 | 0.00 | 0.00 | 63 | 1037.6 |
| 20260504044036 | 47 | 81 | 1.0 | 3.0 | 0.00 | 0.00 | 0.00 | 63 | 1037.4 |
| 20260504043536 | 47 | 91 | 0.0 | 3.0 | 0.00 | 0.00 | 0.00 | 63 | 1037.4 |
| 20260504043034 | 47 | 89 | 0.0 | 2.0 | 0.00 | 0.00 | 0.00 | 62 | 1037.5 |
| 20260504042532 | 47 | 97 | 0.0 | 2.0 | 0.00 | 0.00 | 0.00 | 62 | 1037.5 |
| 20260504042033 | 48 | 82 | 0.0 | 3.0 | 0.00 | 0.00 | 0.00 | 61 | 1037.4 |
| 20260504041532 | 48 | 76 | 1.0 | 3.0 | 0.00 | 0.00 | 0.00 | 61 | 1037.4 |
| 20260504041032 | 47 | 86 | 0.0 | 0.0 | 0.00 | 0.00 | 0.00 | 61 | 1037.3 |
| 20260504040531 | 48 | 85 | 0.0 | 0.0 | 0.00 | 0.00 | 0.00 | 62 | 1037.3 |
| 20260504040030 | 48 | 85 | 0.0 | 0.0 | 0.00 | 0.00 | 0.00 | 60 | 1037.3 |
| 20260504035530 | 47 | 86 | 0.0 | 0.0 | 0.00 | 0.00 | 0.00 | 61 | 1037.3 |
| 20260504035030 | 48 | 86 | 0.0 | 0.0 | 0.00 | 0.00 | 0.00 | 60 | 1037.2 |
| 20260504034529 | 48 | 86 | 0.0 | 0.0 | 0.00 | 0.00 | 0.00 | 60 | 1037.1 |
| 20260504034033 | 48 | 85 | 0.0 | 0.0 | 0.00 | 0.00 | 0.00 | 59 | 1037.0 |
| 20260504033530 | 49 | 84 | 0.0 | 2.0 | 0.00 | 0.00 | 0.00 | 59 | 1037.1 |
| 20260504033032 | 49 | 82 | 0.0 | 3.0 | 0.00 | 0.00 | 0.00 | 59 | 1037.0 |
| 20260504032528 | 49 | 82 | 0.0 | 3.0 | 0.00 | 0.00 | 0.00 | 58 | 1037.1 |
| 20260504032028 | 49 | 82 | 0.0 | 0.0 | 0.00 | 0.00 | 0.00 | 59 | 1037.1 |
| 20260504031530 | 49 | 82 | 0.0 | 0.0 | 0.00 | 0.00 | 0.00 | 58 | 1037.0 |
| 20260504031032 | 49 | 82 | 0.0 | 0.0 | 0.00 | 0.00 | 0.00 | 58 | 1037.0 |
| 20260504030528 | 49 | 82 | 0.0 | 0.0 | 0.00 | 0.00 | 0.00 | 58 | 1036.9 |
| 20260504030028 | 49 | 82 | 0.0 | 0.0 | 0.00 | 0.00 | 0.00 | 58 | 1037.0 |
| 20260504025528 | 49 | 79 | 0.0 | 4.0 | 0.00 | 0.00 | 0.00 | 58 | 1037.1 |
| 20260504025028 | 49 | 79 | 0.0 | 4.0 | 0.00 | 0.00 | 0.00 | 57 | 1037.0 |
| 20260504024528 | 49 | 104 | 0.0 | 3.0 | 0.00 | 0.00 | 0.00 | 58 | 1037.0 |
| 20260504024029 | 49 | 91 | 0.0 | 0.0 | 0.00 | 0.00 | 0.00 | 58 | 1036.9 |
| 20260504023528 | 49 | 91 | 0.0 | 1.0 | 0.00 | 0.00 | 0.00 | 58 | 1036.9 |
| 20260504023028 | 50 | 89 | 0.0 | 2.0 | 0.00 | 0.00 | 0.00 | 58 | 1037.0 |
| 20260504022528 | 50 | 86 | 0.0 | 2.0 | 0.00 | 0.00 | 0.00 | 57 | 1037.0 |
| 20260504022027 | 50 | 87 | 0.0 | 2.0 | 0.00 | 0.00 | 0.00 | 57 | 1037.1 |
| 20260504021529 | 50 | 86 | 0.0 | 3.0 | 0.00 | 0.00 | 0.00 | 56 | 1037.1 |
| 20260504021027 | 51 | 79 | 0.0 | 4.0 | 0.00 | 0.00 | 0.00 | 55 | 1037.0 |
| 20260504020527 | 51 | 101 | 0.0 | 4.0 | 0.00 | 0.00 | 0.00 | 55 | 1037.0 |
| 20260504020029 | 51 | 90 | 0.0 | 3.0 | 0.00 | 0.00 | 0.00 | 54 | 1037.0 |
| 20260504015526 | 51 | 86 | 1.0 | 3.0 | 0.00 | 0.00 | 0.00 | 54 | 1037.0 |
| 20260504015031 | 51 | 89 | 0.0 | 3.0 | 0.00 | 0.00 | 0.00 | 55 | 1037.0 |
| 20260504014540 | 51 | 88 | 1.0 | 3.0 | 0.00 | 0.00 | 0.00 | 54 | 1036.9 |
| 20260504014027 | 51 | 86 | 0.0 | 3.0 | 0.00 | 0.00 | 0.00 | 54 | 1036.9 |
| 20260504013526 | 51 | 91 | 1.0 | 3.0 | 0.00 | 0.00 | 0.00 | 53 | 1036.9 |
| 20260504013026 | 51 | 84 | 0.0 | 2.0 | 0.00 | 0.00 | 0.00 | 54 | 1036.8 |
| 20260504012527 | 51 | 75 | 0.0 | 0.0 | 0.00 | 0.00 | 0.00 | 54 | 1036.8 |
| 20260504012024 | 51 | 81 | 0.0 | 0.0 | 0.00 | 0.00 | 0.00 | 54 | 1036.8 |
| 20260504011525 | 51 | 89 | 0.0 | 0.0 | 0.00 | 0.00 | 0.00 | 54 | 1036.8 |
| 20260504011024 | 52 | 91 | 0.0 | 2.0 | 0.00 | 0.00 | 0.00 | 53 | 1036.6 |
| 20260504010527 | 52 | 95 | 0.0 | 2.0 | 0.00 | 0.00 | 0.00 | 53 | 1036.5 |
| 20260504010025 | 52 | 86 | 0.0 | 2.0 | 0.00 | 0.00 | 0.00 | 52 | 1036.5 |
| 20260504005524 | 52 | 82 | 0.0 | 3.0 | 0.00 | 0.00 | 0.00 | 51 | 1036.5 |
| 20260504005026 | 52 | 84 | 0.0 | 3.0 | 0.00 | 0.00 | 0.00 | 51 | 1036.5 |
| 20260504004524 | 52 | 82 | 0.0 | 2.0 | 0.00 | 0.00 | 0.00 | 50 | 1036.5 |
| 20260504004026 | 53 | 83 | 0.0 | 1.0 | 0.00 | 0.00 | 0.00 | 51 | 1036.5 |
| 20260504003524 | 53 | 82 | 0.0 | 1.0 | 0.00 | 0.00 | 0.00 | 49 | 1036.4 |
| 20260504003024 | 54 | 80 | 0.0 | 2.0 | 0.00 | 0.00 | 0.00 | 48 | 1036.3 |
| 20260504002523 | 54 | 80 | 0.0 | 3.0 | 0.00 | 0.00 | 0.00 | 47 | 1036.3 |
| 20260504002023 | 54 | 93 | 0.0 | 4.0 | 0.00 | 0.00 | 0.00 | 46 | 1036.2 |
| 20260504001525 | 54 | 89 | 1.0 | 4.0 | 0.00 | 0.00 | 0.00 | 46 | 1036.2 |
| 20260504001023 | 55 | 90 | 0.0 | 3.0 | 0.00 | 0.00 | 0.00 | 47 | 1036.2 |
| 20260504000522 | 55 | 98 | 0.0 | 6.0 | 0.00 | 0.00 | 0.00 | 46 | 1036.2 |
| 20260504000037 | 56 | 96 | 1.0 | 6.0 | 0.00 | 0.00 | 0.00 | 44 | 1036.1 |
| 20260503235522 | 56 | 89 | 1.0 | 7.0 | 0.00 | 0.00 | 0.00 | 44 | 1036.1 |
| 20260503235024 | 57 | 82 | 2.0 | 7.0 | 0.00 | 0.00 | 0.00 | 42 | 1036.0 |